Tracking 28794 objects as of 19-Apr-2024
HD Live streaming from Space Station
objects crossing your sky now

ASTRA 2B

Track ASTRA 2B now!
ASTRA 2B is classified as:


NORAD ID: 26494
Int'l Code: 2000-054A
Perigee: 36,120.0 km
Apogee: 36,235.8 km
Inclination: 7.7 °
Period: 1,455.8 minutes
Semi major axis: 42548 km
RCS: 17 m2 (large)
Launch date: September 14, 2000
Source: SOCIETE EUROPEENNE DES SATELLITES (SES)
Launch site: FRENCH GUIANA (FRGUI)

Direct-to-home; broadcasting, multimedia; 30 Ku-band for first five years, 28 after; UK and Ireland.
Your satellite tracking list
Your tracking list is empty




NASA's NSSDC Master Catalog

Two Line Element Set (TLE):
1 26494U 00054A   24109.80864963 -.00000158  00000-0  00000-0 0  9999
2 26494   7.7275  63.5977 0013608 138.0366 237.0291  0.98917034 38834
Source of the keplerian elements: AFSPC